Location: Baychester
(40.8612°N, 73.8412°W)
Time: 05:28:15
(UTC+00:00)

Daily predictions for brighter satellites

Satellite Brightness Start Highest point End
(mag) Time Altitude Azimuth Time Altitude Azimuth Time Altitude Azimuth
SPOT 3 Rocket 4.4 00:54:32 10° SE 00:59:08 34° ENE 01:03:47 10° N
IRS-1A Rocket 4.4 00:54:26 10° SSE 01:00:17 73° ENE 01:06:05 10° N
SJ-6B 3.4 00:57:56 10° S 01:02:01 63° W 01:06:04 10° NNW
Cosmos 1470 3.8 00:58:56 10° NNE 01:02:29 30° ENE 01:06:00 10° SE
USA 186 3.5 01:00:45 10° SSW 01:03:09 28° W 01:05:45 10° NNW
SL-16 R/B 2.5 01:02:48 10° S 01:08:10 45° ESE 01:13:33 10° NE
Cosmos 2360 Rocket 3.5 01:05:50 10° SE 01:09:50 20° E 01:13:50 10° NE
Cosmos 2322 Rocket 2.8 01:05:48 10° S 01:10:57 37° ESE 01:16:09 10° NE
BREEZE-M DEB (TANK) 2.3 01:10:50 10° SW 01:13:03 41° SE 01:15:57 10° ENE
Cosmos 1315 Rocket 3.7 01:10:10 10° N 01:14:00 36° ENE 01:17:47 10° SE
SL-24 DEB 4.3 01:10:01 10° S 01:14:44 88° W 01:19:31 10° N
Cosmos 676 Rocket 4.3 01:11:21 10° NNW 01:16:37 57° ENE 01:21:51 10° SSE
Cosmos 1954 Rocket 4.2 01:12:12 10° NNW 01:17:29 59° ENE 01:22:42 10° SSE
Ariane Rocket 3.1 01:12:23 10° SSE 01:17:29 85° WSW 01:22:38 10° NNW
Cosmos 2227 4.3 01:12:05 10° NNW 01:17:41 65° ENE 01:23:14 10° SSE
ATLAS 2A CENTAUR R/B 4.4 01:05:42 10° SW 01:17:45 19° S 01:23:10 10° SE
OBJECT-B 2.8 01:16:43 10° SSW 01:19:28 26° W 01:22:15 10° NW
Meteor 1-21 4.3 01:14:15 10° S 01:19:48 60° E 01:25:21 10° NNE
Aureole 2 Rocket 4.3 01:20:12 10° WNW 01:21:50 16° WSW 01:23:25 10° SW
Okean 1 Rocket 3.3 01:18:23 10° N 01:22:41 54° E 01:26:59 10° SSE
Cosmos 1934 Rocket 4.1 01:17:13 10° N 01:23:19 79° W 01:29:29 10° S
USA 238 DEB 4.0 01:17:08 10° SW 01:23:37 73° NW 01:30:28 10° NNE
USA 238 3.9 01:17:15 10° SW 01:23:43 73° NW 01:30:34 10° NNE
Resurs 1-3 3.9 01:19:29 10° S 01:23:50 70° WSW 01:28:13 10° NNW
USA 215 4.5 01:20:21 10° E 01:24:26 17° ESE 01:28:30 10° SSE
Cosmos 1726 2.2 01:22:53 10° N 01:26:28 55° E 01:29:47 12° SSE
Cosmos 1980 Rocket 4.1 01:24:13 10° WSW 01:29:19 34° WNW 01:34:25 10° N
Cosmos 220 Rocket 4.2 01:25:12 10° SSW 01:29:30 75° WNW 01:33:48 10° NNE
Cosmos 1378 Rocket 3.7 01:25:33 10° S 01:29:52 79° W 01:34:16 10° N
BREEZE-M DEB (TANK) 2.2 01:28:17 10° SSW 01:30:18 25° SE 01:32:44 10° ENE
Cosmos 1758 3.8 01:28:45 10° N 01:32:34 43° ENE 01:35:36 15° SSE
Okean 2 3.4 01:28:30 10° S 01:32:35 85° W 01:36:41 10° N
Cosmos 1140 Rocket 4.3 01:27:33 10° NNW 01:32:38 51° WSW 01:37:39 10° S
CENTAUR R/B 3.0 01:29:00 10° SW 01:34:44 64° NW 01:41:37 10° NNE
Lacrosse 5 rocket 2.2 01:35:45 10° S 01:38:41 22° SE 01:41:33 10° ENE
Cosmos 1707 2.7 01:39:34 10° S 01:43:25 85° E 01:47:20 10° N
Cosmos 292 Rocket 3.8 01:38:53 10° SSW 01:43:43 89° W 01:48:35 10° NNE
Meteor 2-10 4.4 01:40:45 10° NNW 01:45:44 62° W 01:50:49 10° S
Cosmos 1727 Rocket 4.0 01:40:57 10° S 01:47:12 68° E 01:53:27 10° NNE
Cosmos 1844 Rocket 3.9 01:43:43 10° N 01:48:40 30° ENE 01:52:38 14° ESE
NOSS 8 (A) 4.2 01:45:35 10° SSW 01:49:15 85° SE 01:52:16 10° NE
Meteor 2-20 Rocket 4.5 01:44:12 10° S 01:50:14 66° E 01:56:17 10° NNE
SPOT 5 3.9 01:50:49 17° SE 01:54:06 34° ENE 01:58:34 10° N
Cosmos 1605 Rocket 4.3 01:48:12 10° NNW 01:54:35 72° W 02:00:53 10° S
FALCON 9 DEB 3.0 01:55:21 10° SW 01:58:45 82° SE 02:02:10 10° NE
Cosmos 1953 3.0 01:56:30 10° N 02:00:20 38° ENE 02:02:13 24° SE
Resurs 01 Rocket 2.4 01:56:26 10° S 02:00:42 48° W 02:04:59 10° NNW
Cosmos 1452 Rocket 3.5 01:55:41 10° SSW 02:00:58 88° WNW 02:06:17 10° NNE
Cosmos 2263 Rocket 3.0 01:56:22 10° NW 02:01:49 47° WSW 02:06:51 12° S
Cosmos 1025 Rocket 3.9 02:00:33 22° SE 02:02:29 33° E 02:06:25 10° NNE
CARTOSAT-1 3.8 02:02:17 23° SE 02:04:47 56° ENE 02:09:01 10° N
Terra 3.0 02:02:47 19° ESE 02:05:14 29° ENE 02:09:19 10° N
IGS 5A 4.5 02:01:55 10° S 02:05:50 42° W 02:09:49 10° NNW
USA 245 3.9 02:03:19 20° SSE 02:06:32 85° ENE 02:12:04 10° NNW
In-Cosmos 22 4.1 02:05:19 10° SSW 02:10:37 82° W 02:15:55 10° N
Lacrosse 5 1.9 02:05:42 10° NW 02:10:45 74° SW 02:13:41 25° SSE
SPOT 1/Viking Rocket 3.6 02:06:53 17° S 02:10:50 79° WSW 02:16:00 10° NNW
Cosmos 1626 2.8 02:10:37 29° SE 02:11:38 36° E 02:15:03 10° NNE
Cosmos 1975 Rocket 3.0 02:09:40 16° S 02:13:04 85° E 02:17:29 10° N
Cosmos 1850 Rocket 4.1 02:08:29 10° NNW 02:13:48 70° ENE 02:16:49 26° SSE
Cosmos 2333 Rocket 2.9 02:14:46 24° SSE 02:17:13 34° ESE 02:22:19 10° NE
Cosmos 1461 3.7 02:14:13 10° NNW 02:18:10 38° NE 02:19:59 25° ESE
Geosat 4.1 02:15:36 25° SE 02:18:29 70° ENE 02:23:30 10° NNW
Spot 2 Rocket 3.4 02:18:25 24° SSE 02:21:35 89° WSW 02:26:41 10° NNW
KORONAS-FOTON 3.8 02:21:34 22° SSW 02:23:57 77° W 02:27:46 10° N
Cosmos 1459 Rocket 3.9 02:18:31 10° N 02:24:34 70° E 02:28:09 26° SSE
Cosmos 1331 Rocket 3.9 02:22:28 17° S 02:26:30 70° ESE 02:31:44 10° NNE
ERS-1 Rocket 3.0 02:24:37 28° SSE 02:27:13 70° ENE 02:32:15 10° N
Cosmos 1000 Rocket 4.4 02:24:19 17° S 02:29:12 84° E 02:35:21 10° N
Cosmos 2219 Rocket 2.8 02:29:35 29° SE 02:31:31 37° ESE 02:36:42 10° NE
ATLAS CENTAUR R/B 3.2 02:28:57 10° N 02:32:32 24° NE 02:34:48 17° E
Cosmos 1844 4.0 02:27:49 10° NNW 02:33:17 54° ENE 02:35:57 29° SE
ARIANE 5 R/B 2.9 02:36:13 29° S 02:38:22 65° WSW 02:42:50 10° NNW
Meteor 1-24 Rocket 4.4 02:37:25 28° ESE 02:38:46 32° E 02:43:31 10° NNE
Cosmos 2061 Rocket 4.2 02:35:09 10° N 02:41:32 61° E 02:44:37 31° SSE
Meteor 2-11 Rocket 4.4 02:36:17 10° N 02:42:27 86° E 02:45:42 30° S
Cosmos 1674 3.8 02:41:23 18° SW 02:43:48 41° WNW 02:47:21 10° N
Aureole 1 Rocket 4.1 02:37:51 10° NNW 02:43:53 83° ENE 02:47:53 30° SSE
CZ-4B DEB 4.5 02:44:40 53° E 02:44:44 53° ENE 02:47:49 10° N
Cosmos 1302 Rocket 4.2 02:43:00 35° SSE 02:44:47 50° ESE 02:49:52 10° NNE
ATLAS 3B R/B 2.6 02:39:16 13° SSW 02:45:02 63° ESE 02:51:38 10° NE
Cosmos 1741 Rocket 4.3 02:40:49 10° NNW 02:46:01 64° WSW 02:48:30 31° S
Cosmos 2237 Rocket 4.1 02:47:42 13° E 02:47:42 13° E 02:49:51 10° ENE
Celestis-02/Orion 38 4.5 02:49:22 38° SSE 02:51:24 87° ENE 02:56:34 10° NNW
Cosmos 2123 Rocket 3.9 02:48:01 28° S 02:51:33 78° E 02:57:53 10° N
SL-16 R/B 4.3 02:47:42 10° WSW 02:52:27 27° NW 02:57:14 10° N
Cosmos 2360 Rocket 2.8 02:47:48 10° SW 02:53:20 56° WNW 02:58:54 10° NNE
Cosmos 2322 Rocket 3.9 02:49:55 10° WSW 02:55:00 33° WNW 03:00:07 10° N
Cosmos 1300 3.1 02:51:27 10° N 02:55:09 46° E 02:55:23 45° E
H-2A R/B 3.3 02:53:42 10° NNE 02:57:48 83° ESE 02:58:45 52° S
Cosmos 1544 Rocket 3.7 02:54:05 10° NNW 02:58:33 71° W 02:59:55 42° SSW
SL-24 R/B 4.3 02:57:52 10° N 03:02:42 70° E 03:03:58 47° SSE
Cosmos 1455 Rocket 4.3 02:59:18 10° NNW 03:03:24 36° W 03:05:24 24° SW
Cosmos 2233 Rocket 4.2 02:58:37 10° N 03:04:38 54° E 03:06:48 37° SE
Cosmos 1346 Rocket 4.0 03:05:41 29° ENE 03:05:41 29° ENE 03:08:45 10° NNE
USA 215 3.1 03:01:33 10° NE 03:08:06 74° SE 03:14:38 10° SW
COSMOS 2428 2.7 03:06:54 40° S 03:08:49 63° ESE 03:14:30 10° NNE
Cosmos 1340 3.1 03:10:39 47° SW 03:11:23 58° W 03:15:07 10° N
Cosmos 2322 3.7 03:08:15 26° SSW 03:11:34 85° WNW 03:17:15 10° NNE
BREEZE-M DEB (TANK) 3.7 03:09:51 10° WNW 03:11:14 26° WNW 03:11:14 26° WNW
Cosmos 405 3.1 03:13:48 10° NNW 03:17:02 69° WNW 03:17:02 69° WNW
Lacrosse 5 rocket 2.5 03:14:10 10° WSW 03:17:36 36° NW 03:20:57 10° NNE
Cosmos 2278 Rocket 3.6 03:16:40 10° N 03:21:33 29° NE 03:23:55 22° E
Cosmos 2016 Rocket 4.4 03:21:22 10° NNW 03:27:18 55° W 03:29:58 32° SSW
Cosmos 1536 Rocket 4.2 03:26:46 37° SW 03:28:07 51° W 03:32:29 10° N
SPOT 5 4.4 03:30:02 22° SW 03:32:07 29° W 03:36:28 10° NW
Cosmos 968 Rocket 3.5 03:27:28 10° NNW 03:32:34 66° ENE 03:33:30 54° ESE
Cosmos 1844 Rocket 3.5 03:27:23 10° NW 03:32:39 40° WSW 03:34:17 33° SW
Cosmos 1992 Rocket 4.0 03:32:57 54° SE 03:33:24 57° ESE 03:38:32 10° NNE
Meteor 2-5 Rocket 4.0 03:32:04 35° SW 03:34:20 63° W 03:39:54 10° N
Cosmos 1900 4.3 03:30:10 10° NW 03:35:00 63° WSW 03:35:33 58° SSW
Cosmos 1725 Rocket 4.5 03:32:55 10° NNW 03:38:52 52° W 03:41:21 33° SSW
USA 267 4.2 03:34:23 11° E 03:40:10 43° NNE 03:46:15 10° NW
GEOS 3 Rocket 3.9 03:39:18 43° ESE 03:40:56 65° NE 03:46:15 10° NNW
Terra 3.2 03:41:40 26° WSW 03:42:54 29° W 03:47:03 10° NW
Cosmos 2228 2.9 03:47:25 10° N 03:51:51 85° W 03:51:52 85° WSW
Lacrosse 5 4.2 03:51:53 10° WSW 03:52:53 11° WSW 03:52:53 11° WSW
Cosmos 1980 3.7 03:56:11 57° SE 03:56:40 60° ESE 04:02:16 10° NNE
Cosmos 2333 Rocket 3.6 03:56:42 12° WSW 04:01:24 36° WNW 04:06:40 10° N
BREEZE-M DEB (TANK) 3.2 03:52:08 10° WSW 04:03:29 82° NNW 04:06:49 10° ENE
DNEPR-1 R/B 4.1 03:59:51 10° NW 04:03:30 48° W 04:03:30 48° W
Iridium 2 4.3 04:07:27 54° NNW 04:07:27 54° NNW 04:10:30 10° N
ATLAS CENTAUR R/B 2.4 04:07:21 10° NW 04:10:56 39° W 04:10:56 39° W
SL-8 R/B 4.3 04:10:06 10° WNW 04:13:41 43° W 04:13:41 43° W
Cosmos 2219 Rocket 3.7 04:11:14 14° WSW 04:15:29 32° WNW 04:20:33 10° N
Cosmos 2058 Rocket 3.2 04:13:12 10° N 04:17:22 66° NE 04:17:22 66° NE
Cosmos 1503 Rocket 4.0 04:14:19 10° NNW 04:19:43 76° ENE 04:20:18 68° ESE
Cosmos 389 Rocket 4.1 04:16:31 10° NNW 04:18:37 29° NW 04:18:37 29° NW
Meteor 2-10 Rocket 4.1 04:17:07 10° NNW 04:21:52 41° W 04:22:19 40° WSW
Cosmos 2034 Rocket 4.2 04:16:16 10° N 04:22:20 56° E 04:23:38 47° ESE
Cosmos 1455 2.9 04:19:09 10° N 04:22:07 51° NNW 04:22:07 51° NNW
SL-16 R/B 3.2 04:25:54 32° E 04:25:54 32° E 04:30:41 10° NE
Cosmos 1726 Rocket 4.0 04:22:47 10° NNW 04:26:54 54° W 04:26:54 54° W
ATLAS CENTAUR R/B 2.7 04:26:30 64° S 04:27:16 73° SE 04:38:16 10° NE
Meteor 1-4 Rocket 4.5 04:25:11 10° NNE 04:27:14 23° NE 04:27:14 23° NE
Spot 4 4.2 04:28:51 50° W 04:28:52 50° W 04:33:31 10° NNW
GP-B 4.4 04:25:46 10° NNE 04:29:21 29° ENE 04:29:21 29° ENE
Cosmos 2237 Rocket 2.2 04:29:30 60° SW 04:30:29 78° WNW 04:36:09 10° NNE
NOSS 3-1 (C) 4.4 04:31:32 27° E 04:31:32 27° E 04:35:38 10° NE
Cosmos 1867 3.5 04:29:12 10° NW 04:34:38 67° WSW 04:34:48 67° SW
ATLAS 3B R/B 4.3 04:30:31 10° W 04:36:10 30° NW 04:42:01 10° NNE
Thor Agena Rocket 3.7 04:32:58 10° NNE 04:38:08 55° E 04:38:12 55° ESE
ALOS 2 2.9 04:41:22 59° WNW 04:41:22 59° WNW 04:45:17 10° NNW
Cosmos 1892 Rocket 4.5 04:40:55 40° W 04:40:58 40° WNW 04:45:09 10° N
Tsikada Rocket 4.0 04:43:11 55° SE 04:44:13 63° E 04:50:19 10° NNE
SJ 16-02 3.0 04:43:33 10° N 04:47:09 24° ENE 04:47:52 23° E
Meteor 1-21 Rocket 4.3 04:46:49 58° SW 04:47:39 66° WNW 04:53:20 10° N
USA 215 4.5 04:44:51 10° NE 04:50:48 39° NNW 04:56:44 10° W
SL-4 R/B 2.9 04:52:00 43° NNE 04:52:00 43° NNE 04:54:51 10° NE
Meteor 1-11 4.2 04:59:16 61° SE 04:59:47 65° E 05:05:20 10° NNE
Cosmos 2297 4.5 04:58:25 10° NNW 05:03:50 45° ENE 05:05:43 34° ESE
Cosmos 2278 Rocket 2.8 05:00:26 10° NW 05:05:44 42° WSW 05:05:44 42° WSW
Cosmos 1777 Rocket 3.8 05:05:21 10° NNW 05:10:40 88° ENE 05:11:01 78° SSE
Cosmos 1626 Rocket 4.0 05:11:52 55° WNW 05:11:52 55° WNW 05:15:59 10° N
PSLV R/B 3.7 05:10:24 10° NNE 05:14:21 74° NNE 05:14:21 74° NNE
Cosmos 1892 4.1 05:18:18 32° ENE 05:18:18 32° ENE 05:21:06 10° NNE
Cosmos 1602 Rocket 3.8 05:18:27 66° NW 05:18:27 66° NW 05:22:37 10° N
NOSS 2-3 (D) 4.4 05:21:22 41° ENE 05:21:22 41° ENE 05:24:46 10° NE
USA 267 3.2 05:21:42 54° S 05:22:58 65° SW 05:29:29 10° NW
Cosmos 1758 Rocket 3.6 05:25:43 76° NNE 05:25:43 76° NNE 05:29:51 10° N
In-Cosmos 22 Rocket 4.4 05:30:08 51° SE 05:30:59 56° E 05:36:23 10° NNE
NOSS 2-3 (C) 3.7 05:37:47 67° ENE 05:37:47 67° ENE 05:41:52 10° NE
EO 1 Del DPAF 3.9 05:34:09 10° N 05:37:03 51° N 05:37:03 51° N
Aureole 3 3.7 05:34:35 10° NNW 05:37:46 62° NNW 05:37:46 62° NNW
SL-24 R/B 4.4 05:40:29 71° SW 05:40:53 75° WSW 05:46:37 10° NNW
Cosmos 1943 4.2 05:41:25 31° ESE 05:42:12 33° ESE 05:47:10 10° NE
Cosmos 1634 Rocket 4.0 05:38:07 10° N 05:44:25 74° W 05:45:48 55° SSW
Cosmos 2279 Rocket 4.0 05:39:40 10° N 05:45:56 72° E 05:47:46 47° SSE
Cosmos 1603 4.5 05:46:50 36° SE 05:47:44 38° ESE 05:52:56 10° NE
Cosmos 405 Rocket 3.7 05:48:53 38° ENE 05:48:53 38° ENE 05:51:45 10° NNE
Cosmos-2242 3.1 05:44:14 10° N 05:48:21 72° NW 05:48:21 72° NW
Cosmos 1943 Rocket 2.1 05:43:29 10° NNW 05:49:01 82° ENE 05:50:15 56° SE
Cosmos 1825 3.2 05:52:57 40° ENE 05:52:57 40° ENE 05:56:05 10° NNE
YAOGAN 11 4.1 05:54:06 68° ESE 05:54:23 71° ENE 05:58:51 10° N
Resurs 1-4 Rocket 2.9 05:55:04 10° NNE 06:00:03 40° E 06:01:20 34° SE
Exosat Rocket 4.0 06:01:44 47° S 06:03:49 79° ESE 06:09:24 10° NNE
CZ-2D R/B 2.7 06:04:15 10° NNE 06:09:16 46° E 06:10:33 38° SE
SL-16 R/B 3.3 06:07:45 28° W 06:09:42 36° WNW 06:14:55 10° N
USA 229 DEB 3.5 06:08:35 46° SW 06:10:40 82° NW 06:17:28 10° NNE
USA 229 3.5 06:08:42 46° SW 06:10:47 82° NW 06:17:35 10° NNE
MOZ.5/SAFIR/RUBIN 5/SL-8 3.7 06:13:18 61° SSE 06:14:08 82° ENE 06:18:54 10° N
Cosmos 468 Rocket 3.9 06:16:01 60° SW 06:16:55 80° WNW 06:22:09 10° NNE
ADEOS II 3.7 06:12:54 10° NE 06:17:15 26° E 06:19:31 19° SE
Cosmos 2221 3.2 06:13:45 10° N 06:17:55 47° E 06:18:55 39° ESE
Nadezhda 4 Rocket 4.0 06:17:10 42° SSE 06:19:19 72° E 06:25:26 10° NNE
Cosmos 1408 3.6 06:20:25 38° NW 06:20:25 38° NW 06:23:21 10° N
X-37B 1.9 06:21:11 41° NNE 06:21:11 41° NNE 06:23:40 10° ENE
NOSS 3-1 (C) 4.1 06:18:54 28° W 06:21:12 43° NW 06:27:06 10° NNE
ARGOS Delta rocket 4.3 06:15:54 10° NNE 06:21:23 67° E 06:23:00 45° SSE
Cosmos 2098 Rocket 3.9 06:20:29 41° SSE 06:22:28 65° E 06:27:23 10° NNE
SJ 16-02 2.7 06:21:55 10° NW 06:24:50 27° WNW 06:24:50 27° WNW
Cosmos 2369 Rocket 2.1 06:23:02 10° NNW 06:28:48 88° ENE 06:31:22 35° SSE
SL-16 R/B 2.7 06:26:24 26° SSE 06:30:05 71° ENE 06:36:15 10° N
Cosmos 1869 4.3 06:26:25 10° NNW 06:29:42 35° WNW 06:29:42 35° WNW
NOSS 3-1 (A) 3.5 06:28:32 40° WSW 06:30:21 62° NW 06:36:28 10° NNE
SL-4 R/B 4.4 06:28:43 10° WNW 06:31:20 18° NNW 06:33:52 10° NNE
Cosmos 1606 3.7 06:31:15 10° N 06:34:54 41° ENE 06:35:59 32° ESE
Cosmos 1656 Rocket 4.0 06:29:35 10° NNW 06:35:15 64° ENE 06:39:36 17° SE
Cosmos 2263 4.3 06:30:18 10° NNW 06:36:00 74° ENE 06:39:38 23° SSE
Cosmos 1763 Rocket 3.8 06:35:28 43° WSW 06:36:41 53° WNW 06:41:41 10° N
Cosmos 1437 Rocket 2.5 06:33:35 10° N 06:37:29 87° W 06:37:37 83° SSW
Cosmos 1242 Rocket 3.3 06:36:41 10° N 06:40:10 48° ENE 06:40:52 41° ESE
Cosmos 2058 2.9 06:40:52 59° WSW 06:41:08 61° W 06:45:12 10° N
USA 290 3.9 06:42:13 25° ESE 06:42:15 25° ESE 06:44:58 10° NE
ATLAS 5 CENTAUR R/B 2.3 06:48:01 32° SE 06:48:33 34° ESE 06:52:21 10° NE
DELTA 2 R/B (1) 3.6 06:48:29 44° SW 06:49:58 58° SSE 06:55:25 10° E
Cosmos 1932 4.5 06:43:49 10° NNW 06:50:04 79° ENE 06:56:15 10° SE
Aureole 3 Rocket 3.3 06:49:52 10° N 06:53:43 67° E 06:56:17 27° SSE
Cosmos 1437 3.7 06:52:09 10° N 06:54:45 34° ENE 06:55:00 33° E
ADEOS Rocket 3.8 06:48:33 10° SSE 06:55:56 65° ENE 07:02:40 10° N
Cosmos 1092 Rocket 3.9 06:54:17 32° S 06:57:20 85° E 07:03:30 10° N
Helios 1A 4.4 06:59:24 23° W 06:59:24 23° W 07:02:21 10° NW
USA 307 3.3 06:58:46 43° SSE 06:59:28 48° SE 07:03:34 10° ENE
Cosmos 1633 2.3 07:03:06 66° S 07:03:33 89° WNW 07:07:05 10° N
Landsat 4 4.0 07:01:11 10° NNE 07:04:57 61° ESE 07:06:02 41° SSE
Helios 1B rocket 2.6 07:01:09 10° N 07:05:12 59° WNW 07:06:08 45° SW
IRS-1D 3.8 07:04:26 10° NNE 07:09:32 60° E 07:12:21 25° S
Cosmos 1842 Rocket 3.9 07:05:30 10° NNW 07:09:38 45° W 07:10:28 39° SW
USA 308 2.9 07:13:55 42° SSW 07:15:10 66° SE 07:19:23 10° NE
Cosmos 1428 Rocket 4.5 07:13:10 27° S 07:16:53 85° W 07:23:14 10° N
NOSS 2-2 (D) 2.8 07:17:58 51° SSW 07:18:44 84° ESE 07:22:17 10° NE
Cosmos 841 Rocket 4.0 07:19:57 28° WSW 07:22:11 45° WNW 07:27:08 10° N
UNK 4.3 07:21:01 33° SW 07:22:14 40° W 07:26:35 10° NNW
Cosmos 540 Rocket 4.3 07:22:33 25° WSW 07:24:46 36° WNW 07:29:29 10° N
Cosmos 921 Rocket 3.5 07:24:20 32° WSW 07:25:44 44° WNW 07:29:47 10° N
Cosmos 1898 Rocket 4.4 07:21:39 10° NW 07:26:07 29° W 07:27:17 27° WSW
Cosmos 1943 4.2 07:23:13 22° WSW 07:26:09 35° WNW 07:31:19 10° N
Cosmos 1825 4.5 07:27:43 12° WNW 07:28:12 12° WNW 07:29:42 10° NW
MINOTAUR 4 R/B 4.2 07:28:57 40° SSW 07:29:51 52° W 07:33:19 10° NNW
Lacrosse 4 Rocket 2.4 07:25:55 10° NNW 07:29:52 47° ENE 07:33:46 10° SE
Cosmos 1937 Rocket 4.1 07:25:58 10° NW 07:30:50 38° W 07:33:00 26° SSW
Cosmos 1943 Rocket 4.0 07:29:48 10° WNW 07:31:43 12° W 07:31:43 12° W
USA 305 2.9 07:32:36 30° WSW 07:34:37 79° NW 07:38:53 10° NE
NPP 4.5 07:29:46 10° N 07:34:41 37° WNW 07:37:30 22° WSW
Resurs 1-4 Rocket 3.4 07:35:17 10° N 07:39:39 27° WNW 07:42:25 17° WSW
Cosmos 1933 3.3 07:37:30 10° N 07:41:37 84° W 07:44:44 17° S
Cosmos 1271 Rocket 4.4 07:42:22 10° N 07:45:45 32° ENE 07:49:08 10° SE
Cosmos 2151 3.5 07:45:23 25° SW 07:47:21 43° WNW 07:51:23 10° N
IRIDIUM 104 4.3 07:42:18 10° N 07:47:33 87° W 07:52:28 12° S
Cosmos 2150 Rocket 4.3 07:42:53 10° NNW 07:48:04 68° ENE 07:53:17 10° SSE
Cosmos 1809 Rocket 4.4 07:43:32 16° S 07:48:30 85° W 07:54:43 10° N
CZ-2D R/B 3.6 07:45:03 10° NNW 07:48:59 22° WNW 07:51:52 14° WSW
Cosmos 2221 4.4 07:52:53 10° NW 07:54:58 13° W 07:55:44 13° W
Meteor 1-29 4.4 07:53:03 10° NNW 07:55:49 23° WNW 07:57:07 19° WSW
Cosmos 1553 Rocket 4.0 07:49:39 10° N 07:55:59 80° W 08:02:10 10° S
IRIDIUM 114 4.3 07:51:28 10° N 07:56:41 71° W 08:01:36 11° S
USA 306 3.3 07:53:56 19° WSW 07:56:50 54° NW 08:01:01 10° NE
ADEOS II 2.8 07:52:09 10° N 07:57:00 39° WNW 08:00:27 18° SW
X-37B 2.0 07:54:35 10° WNW 07:57:35 38° N 08:00:35 10° ENE
ERBS 3.5 07:56:45 18° S 07:58:33 31° SE 08:01:27 10° ENE
S3M 4.2 07:54:15 10° N 08:00:24 76° E 08:06:36 10° SSE
CZ-2C R/B 4.1 07:57:00 10° NE 08:01:21 30° E 08:05:33 10° SSE
Cosmos 1125 Rocket 3.7 07:59:00 10° NNW 08:04:17 77° ENE 08:09:33 10° SSE
IRIDIUM 103 4.5 08:00:41 10° N 08:05:49 58° W 08:10:45 11° SSW
SeaSat 1 2.6 08:01:24 10° NNE 08:06:17 66° WNW 08:10:13 16° SW
ARIANE 5 R/B 2.6 08:03:35 10° NNE 08:08:35 76° ESE 08:13:34 10° S
Cosmos 2369 Rocket 4.0 08:09:57 10° WNW 08:11:56 12° W 08:13:05 11° WSW
SL-08 R/B 3.6 08:07:46 10° SSE 08:12:22 70° ENE 08:17:04 10° N
Cosmos 1328 Rocket 3.6 08:09:36 10° N 08:13:59 84° E 08:18:21 10° S
SL-16 R/B 4.0 08:11:30 14° WSW 08:14:12 18° W 08:18:14 10° NW
Cosmos 1862 3.7 08:10:49 10° S 08:14:47 63° E 08:18:48 10° NNE
IDEFIX/ARIANE 42P 3.0 08:11:25 10° N 08:16:27 48° WNW 08:20:56 13° SW
USA 290 4.4 08:15:00 11° W 08:16:41 15° WNW 08:18:39 10° NNW
Lacrosse 5 rocket 4.2 08:16:48 10° N 08:18:57 15° NNE 08:21:09 10° ENE
Meteor 2-21 Rocket 4.5 08:14:11 10° SSW 08:20:17 75° W 08:26:29 10° N
USA 281 3.3 08:14:37 10° S 08:21:03 57° WSW 08:27:31 10° NNW
IRS-1C 4.2 08:16:41 10° N 08:21:59 66° WNW 08:27:15 10° SSW
CZ-4B R/B 3.6 08:17:59 10° NNE 08:23:18 83° WNW 08:28:30 10° SSW
CZ-4C R/B 2.5 08:19:43 10° SSW 08:24:15 52° ESE 08:29:37 10° NE
GPS 2-04 Rocket1 3.3 08:23:33 13° WSW 08:26:38 36° S 08:30:06 10° ESE
FALCON 9 DEB 3.2 08:25:52 10° NW 08:29:17 82° NE 08:32:39 10° SE
ATLAS 5 CENTAUR R/B 3.1 08:29:57 10° W 08:33:13 23° NW 08:36:46 10° NNE
DELTA 2 R/B (1) 3.6 08:30:43 10° W 08:36:16 80° S 08:41:50 10° E
Cosmos 1766 Rocket 4.5 08:35:21 10° SW 08:39:21 33° WNW 08:43:25 10° N
USA 307 4.3 08:35:46 10° W 08:39:34 31° NNW 08:43:23 10° NE
Okean 3 Rocket 4.5 08:36:54 10° SW 08:40:52 33° WNW 08:44:50 10° NNW
Cosmos 1833 Rocket 3.5 08:35:38 10° S 08:41:02 49° ESE 08:46:28 10° NE
Spot 4 Rocket 4.1 08:35:58 10° NNE 08:41:08 89° W 08:46:17 10° SSW
ADEOS Rocket 4.5 08:35:52 10° SW 08:41:41 24° W 08:47:11 10° NW
Cosmos 1515 Rocket 3.6 08:37:17 10° N 08:41:44 87° W 08:46:10 10° S
Cosmos 2266 Rocket 4.1 08:35:42 10° SSW 08:41:45 60° W 08:47:45 10° N
Cosmos 883 Rocket 4.5 08:35:52 10° N 08:42:02 81° W 08:48:08 10° S
Cosmos 1408 Rocket 3.7 08:40:15 10° SSW 08:44:37 59° W 08:49:02 10° N
Cosmos 1151 Rocket 3.9 08:42:27 10° NNW 08:46:12 30° W 08:49:55 10° SSW
